Temp
88 93 95 92 70 65 66 74 86 77 83 84 91 89 78 76 67 65 81 97 92 89 87 85 83 83 83 83 83 83 83 83 83 84 84 84 84 84 84 84 84 83 84 84 85 84 84 84 84
96 97 95 85 61 53 61 83 81 86 90 94 94 90 86 80 92 88 87 97 94 92 90 87 82 83 83 83 83 83 84 84 84 83 84 84 84 84 84 84 84 84 84 84 84 84 84 84 84
92 99 82 70 57 54 61 81 84 90 94 89 87 95 89 83 94 93 96 96 94 92 92 85 83 83 83 83 83 84 84 83 83 83 83 83 84 84 84 84 85 84 84 85 84 85 84 83 84
95 91 85 72 67 63 70 83 90 89 92 94 91 80 92 97 96 95 97 95 95 93 91 84 83 83 83 83 83 83 83 83 82 83 82 82 83 83 82 82 83 83 85 85 84 84 84 83 84
98 74 68 65 75 79 76 89 92 88 89 90 88 73 83 95 99 97 95 96 94 91 88 85 83 83 83 83 83 83 83 83 82 83 84 84 83 83 83 83 83 83 83 84 83 84 84 83 83
83 86 71 70 73 83 88 91 91 89 89 92 86 78 85 96 96 94 95 93 92 91 90 85 83 83 83 83 82 82 82 82 83 82 83 83 83 83 83 84 84 83 84 84 84 84 84 83 83
85 77 73 77 76 79 84 93 89 84 86 85 92 76 69 90 97 94 95 93 95 92 88 85 84 83 83 82 83 83 83 81 82 82 83 83 83 81 83 83 84 84 84 84 84 84 84 84 83
85 65 69 64 71 73 90 91 94 92 80 90 91 74 64 78 90 94 94 91 91 90 88 85 84 83 81 81 82 82 82 82 82 82 81 81 79 80 82 82 83 85 84 85 85 84 83 83 84
79 61 60 76 78 82 90 90 95 98 89 85 92 80 81 85 92 91 88 87 86 86 86 88 85 84 81 78 81 80 82 82 81 81 82 80 75 76 82 83 85 85 84 85 85 84 84 83 84
73 61 80 89 90 87 88 90 91 90 88 88 88 88 86 90 90 87 84 82 83 82 80 84 85 85 82 84 82 80 79 77 75 74 75 75 77 79 80 83 84 85 85 85 85 84 84 84 77
92 80 89 90 92 93 91 90 95 90 82 81 80 69 85 92 84 86 86 86 85 82 81 83 83 83 83 83 84 82 79 75 73 74 74 76 76 75 74 79 85 83 84 84 78 78 79 82 82
84 91 92 92 94 92 90 94 91 91 90 89 84 79 80 83 87 85 87 87 84 86 85 85 83 81 83 83 83 82 78 76 75 74 73 75 74 77 75 76 77 84 85 75 73 72 75 82 86
89 90 94 94 94 93 95 91 90 91 96 98 86 82 78 90 87 92 92 89 88 81 81 82 86 81 80 80 79 80 78 78 78 75 75 78 75 77 78 77 81 87 82 74 74 73 77 84 86
92 92 93 94 94 95 90 87 88 93 98 96 92 92 92 93 90 89 89 87 84 87 85 81 83 84 81 79 79 77 78 79 77 76 75 77 75 78 78 81 86 84 86 74 74 77 83 84 84
93 87 87 91 93 92 94 73 73 94 97 94 94 93 88 93 92 87 88 88 88 83 84 86 85 86 82 81 80 78 77 83 77 75 76 75 76 79 78 81 84 83 84 81 80 74 74 84 85
88 83 75 87 92 93 92 66 85 96 93 92 87 72 89 91 90 92 91 89 88 86 81 85 88 88 84 84 81 78 77 79 78 75 75 76 77 77 80 83 82 85 85 79 81 74 75 76 74
83 67 77 84 94 92 89 81 92 96 94 90 85 81 90 91 90 90 92 90 89 89 85 85 85 83 83 83 80 78 80 76 80 78 75 77 78 80 82 82 81 85 81 73 73 79 76 75 72
71 71 77 81 89 91 85 86 91 94 92 91 88 90 87 90 90 91 89 93 91 88 86 85 82 80 82 78 78 77 76 79 80 76 76 76 78 81 82 82 73 81 83 78 78 84 82 74 71
82 79 81 86 92 88 83 81 87 93 90 90 88 83 85 82 89 94 93 94 90 88 84 82 80 80 81 75 75 74 75 79 79 78 75 80 81 81 83 80 82 85 81 73 75 81 72 73 81
86 83 81 87 91 87 80 79 79 91 90 90 71 66 69 74 90 89 92 92 91 88 87 84 83 83 81 78 76 76 77 78 77 82 80 80 79 81 84 79 75 84 82 78 81 80 77 75 83
85 83 82 82 85 81 73 63 61 75 90 91 90 79 78 78 90 87 92 92 91 89 89 85 83 83 81 78 77 77 81 78 79 76 76 75 79 85 86 77 73 81 81 78 82 81 75 70 79
78 90 87 85 81 65 78 45 54 64 83 87 90 86 69 90 91 90 93 93 92 91 92 88 85 83 83 81 77 77 79 78 80 77 80 79 81 85 85 84 81 81 81 73 78 84 79 78 76
84 92 88 86 82 79 63 50 55 62 81 84 88 91 85 92 91 88 85 72 95 94 92 89 85 82 83 80 79 77 78 77 81 83 79 79 82 85 86 85 83 84 84 81 85 84 83 80 77
93 88 87 87 83 70 78 72 61 79 83 87 90 92 93 92 92 92 92 85 94 94 94 90 82 81 83 82 81 79 79 77 76 75 79 78 82 84 85 85 83 84 83 83 83 85 85 82 80
89 83 71 68 67 67 82 75 76 86 89 90 90 91 92 92 91 93 92 92 90 88 88 87 84 81 83 83 81 81 80 79 77 78 80 82 83 84 83 84 83 84 83 83 82 83 83 83 81
86 85 74 58 51 68 77 69 76 90 93 94 94 95 95 92 92 95 93 93 88 87 88 90 85 82 82 82 81 81 82 82 80 82 81 80 84 77 85 85 83 84 83 83 82 83 83 83 83
86 80 91 78 71 73 69 60 86 89 88 89 90 91 91 93 96 96 95 94 93 92 90 89 85 84 84 84 83 81 80 81 83 82 85 85 78 77 82 84 84 84 83 83 83 83 82 82 82
89 93 80 82 58 59 68 65 62 79 81 86 86 87 88 90 91 93 94 94 96 97 94 92 89 86 86 86 85 83 82 81 82 81 82 84 83 81 74 78 81 83 84 85 83 82 82 81 82
86 83 85 87 74 61 60 68 81 81 83 83 85 86 87 87 88 90 92 96 96 98 97 92 90 87 87 87 85 84 83 83 83 84 84 84 85 78 72 72 72 80 84 83 81 81 84 82 81
92 87 87 75 72 69 72 63 88 86 87 85 83 84 85 86 87 88 88 89 88 90 92 90 90 88 88 88 86 85 84 83 84 82 85 85 84 84 72 73 69 79 83 81 81 81 83 80 79
MSLP
1006.97 1006.79 1006.26 1005.28 1006.57 1007.02 1006.00 1003.84 1002.33 1002.83 1002.30 1002.93 1002.62 1002.70 1004.32 1005.81 1007.23 1008.28 1008.44 1007.90 1009.11 1010.56 1011.71 1012.42 1012.97 1013.48 1013.98 1014.40 1014.71 1015.10 1015.47 1015.85 1016.12 1016.34 1016.75 1016.95 1017.19 1017.39 1017.59 1017.80 1017.99 1018.23 1018.29 1018.36 1018.45 1018.49 1018.64 1018.80 1018.83
1005.89 1005.64 1005.32 1005.10 1006.70 1008.12 1005.77 1002.99 1001.98 1001.88 1001.92 1001.99 1002.05 1002.92 1003.58 1004.83 1005.42 1006.63 1007.90 1008.08 1009.18 1010.46 1011.42 1012.47 1013.18 1013.63 1013.99 1014.46 1014.85 1015.32 1015.71 1016.01 1016.39 1016.59 1016.90 1017.13 1017.36 1017.60 1017.84 1018.10 1018.24 1018.31 1018.40 1018.42 1018.50 1018.56 1018.66 1018.88 1018.97
1005.82 1004.66 1004.99 1004.97 1007.01 1007.75 1005.41 1003.32 1002.21 1001.93 1001.49 1001.88 1002.33 1002.56 1003.65 1005.02 1005.51 1006.33 1007.58 1008.23 1009.07 1010.34 1011.20 1012.74 1013.32 1013.72 1014.10 1014.44 1014.82 1015.33 1015.95 1016.35 1016.67 1016.90 1017.01 1017.22 1017.50 1017.76 1017.97 1018.10 1018.27 1018.39 1018.43 1018.53 1018.66 1018.64 1018.76 1018.93 1019.00
1004.40 1004.75 1005.09 1004.33 1005.35 1006.86 1004.76 1002.68 1001.57 1001.81 1001.64 1001.98 1002.72 1004.15 1004.54 1004.82 1004.83 1006.10 1007.71 1008.53 1009.09 1010.24 1011.54 1013.06 1013.48 1014.00 1014.34 1014.78 1015.16 1015.48 1016.03 1016.47 1016.90 1017.12 1017.09 1017.35 1017.71 1017.98 1018.22 1018.21 1018.38 1018.53 1018.48 1018.58 1018.70 1018.78 1018.86 1018.90 1018.97
1003.58 1005.16 1004.59 1005.09 1003.96 1003.56 1003.06 1001.88 1001.62 1001.77 1001.86 1002.41 1003.14 1005.22 1005.13 1005.02 1005.54 1006.53 1007.79 1008.72 1009.44 1010.55 1012.15 1013.18 1013.64 1014.11 1014.53 1014.96 1015.39 1015.45 1016.26 1016.71 1016.82 1017.15 1017.27 1017.44 1017.71 1017.95 1018.20 1018.27 1018.43 1018.63 1018.52 1018.53 1018.64 1018.65 1018.66 1018.81 1018.89
1003.12 1002.94 1004.34 1004.01 1003.84 1003.09 1002.34 1002.04 1001.60 1001.92 1002.29 1002.34 1003.61 1005.65 1005.65 1005.74 1005.86 1007.16 1008.07 1009.02 1009.90 1010.69 1012.03 1013.39 1013.99 1014.33 1014.82 1015.09 1015.52 1015.98 1016.44 1016.56 1016.80 1017.16 1017.30 1017.59 1017.74 1017.89 1018.18 1018.30 1018.36 1018.45 1018.35 1018.41 1018.35 1018.36 1018.41 1018.58 1018.73
1003.10 1004.53 1004.87 1004.24 1003.86 1002.87 1002.23 1001.67 1001.40 1002.19 1002.56 1003.24 1003.78 1006.58 1008.53 1006.65 1006.86 1007.70 1008.32 1008.96 1009.77 1010.62 1011.92 1013.34 1013.99 1014.41 1014.85 1015.22 1015.46 1015.91 1016.47 1016.83 1016.99 1017.17 1017.30 1017.64 1017.76 1017.95 1018.16 1018.23 1018.26 1018.14 1018.22 1018.34 1018.20 1018.30 1018.31 1018.40 1018.55
1004.29 1007.21 1006.42 1005.67 1003.69 1003.05 1001.65 1001.34 1001.21 1001.46 1003.36 1003.71 1004.35 1006.34 1007.23 1007.38 1007.98 1008.57 1008.84 1009.55 1010.03 1011.04 1011.99 1012.99 1013.73 1014.26 1014.85 1015.34 1015.71 1016.07 1016.35 1016.83 1016.97 1016.99 1017.35 1017.62 1017.83 1018.03 1018.03 1018.17 1018.06 1017.99 1018.03 1017.93 1017.87 1018.00 1018.11 1018.19 1018.38
1006.73 1009.55 1007.57 1003.82 1002.68 1002.02 1001.58 1000.74 1000.82 1001.50 1002.78 1003.60 1003.99 1006.22 1007.27 1007.89 1007.86 1008.97 1009.27 1009.95 1010.89 1011.34 1012.03 1012.65 1013.43 1014.01 1014.70 1015.49 1015.88 1016.13 1016.30 1016.69 1016.99 1017.01 1017.37 1017.58 1017.90 1018.05 1018.05 1017.97 1017.76 1017.67 1017.51 1017.57 1017.62 1017.69 1017.85 1018.19 1017.72
1005.15 1007.41 1004.22 1002.85 1001.89 1001.34 1001.36 1000.97 1001.03 1001.54 1002.49 1003.41 1004.40 1005.08 1006.58 1006.64 1007.48 1008.46 1009.22 1010.07 1011.08 1011.81 1012.48 1012.67 1013.29 1013.64 1014.52 1015.04 1015.34 1015.88 1016.39 1016.80 1017.20 1017.30 1017.51 1017.65 1017.87 1018.00 1018.04 1017.77 1017.50 1017.21 1017.24 1017.38 1017.74 1017.66 1017.67 1017.69 1017.32
1002.21 1003.28 1002.86 1002.20 1001.76 1001.30 1000.91 1000.73 1001.08 1001.29 1002.58 1003.82 1005.23 1005.77 1007.02 1005.73 1007.28 1008.08 1009.09 1009.71 1010.85 1011.92 1012.49 1013.01 1013.45 1013.64 1014.17 1014.55 1015.00 1015.60 1016.24 1016.91 1017.27 1017.46 1017.57 1017.65 1017.82 1017.94 1017.88 1017.79 1017.08 1016.96 1016.90 1017.38 1017.56 1017.61 1017.67 1017.23 1016.66
1001.97 1001.89 1001.90 1001.59 1001.27 1001.04 1000.71 1000.75 1000.96 1001.35 1001.93 1003.38 1004.11 1005.54 1006.17 1005.91 1006.63 1007.97 1008.84 1009.47 1010.44 1011.33 1011.99 1012.65 1013.11 1013.87 1013.78 1014.10 1014.79 1015.49 1016.24 1016.69 1017.13 1017.48 1017.57 1017.81 1017.91 1017.99 1017.72 1017.57 1017.16 1016.26 1016.19 1017.42 1017.08 1017.47 1017.61 1016.71 1015.75
1001.41 1001.63 1001.35 1000.99 1000.94 1000.82 1000.88 1000.86 1001.08 1001.11 1001.62 1002.39 1003.93 1005.48 1005.28 1005.36 1006.65 1007.04 1008.10 1009.34 1010.32 1011.24 1011.92 1012.55 1012.77 1013.64 1014.09 1014.51 1015.00 1015.40 1015.97 1016.27 1016.67 1017.26 1017.47 1017.50 1017.56 1017.43 1017.40 1016.88 1016.43 1015.58 1015.96 1017.07 1018.45 1017.35 1017.25 1016.00 1015.59
1001.80 1001.55 1001.03 1000.72 1000.59 1000.48 1000.76 1001.11 1001.65 1001.05 1001.26 1002.13 1003.40 1004.07 1004.73 1005.13 1006.29 1007.27 1008.39 1009.10 1010.37 1010.67 1011.59 1012.24 1012.72 1013.34 1013.97 1014.55 1014.79 1015.39 1015.69 1015.96 1016.46 1016.88 1017.15 1017.16 1017.16 1016.95 1016.55 1016.40 1015.58 1015.83 1015.66 1017.69 1017.66 1016.32 1016.07 1015.74 1015.77
1001.79 1001.56 1001.22 1000.62 1000.41 1000.21 1000.65 1002.85 1003.07 1000.65 1000.90 1001.62 1002.85 1003.84 1005.20 1005.23 1005.93 1007.11 1008.01 1008.71 1010.00 1010.68 1011.26 1011.89 1012.51 1013.00 1013.86 1014.22 1014.41 1014.98 1015.54 1015.59 1016.27 1016.59 1016.87 1016.86 1016.96 1016.73 1016.45 1015.97 1015.73 1016.10 1016.03 1016.51 1016.33 1016.98 1016.69 1016.46 1015.83
1001.55 1002.29 1002.28 1000.68 1000.07 999.94 1000.12 1001.61 1001.02 1000.04 1000.93 1001.36 1003.22 1005.98 1005.04 1004.90 1005.71 1006.30 1007.24 1008.21 1009.35 1010.22 1011.24 1011.89 1012.29 1012.71 1013.42 1013.85 1014.17 1014.79 1015.21 1015.29 1015.92 1016.39 1016.57 1016.70 1016.56 1016.57 1016.25 1015.82 1015.62 1015.68 1016.05 1016.64 1016.22 1016.16 1016.82 1017.26 1015.73
1002.40 1003.09 1001.35 999.84 999.53 999.52 999.81 999.83 999.10 999.73 1000.21 1000.81 1003.07 1004.47 1004.28 1004.75 1005.59 1005.94 1006.75 1007.81 1008.68 1009.59 1010.50 1011.38 1011.91 1012.56 1012.91 1013.63 1014.09 1014.64 1014.96 1015.22 1015.65 1016.08 1016.36 1016.42 1016.32 1016.19 1015.80 1015.60 1015.80 1015.44 1016.02 1016.60 1016.71 1016.50 1016.42 1016.86 1017.14
1002.45 1002.52 1001.10 999.65 999.34 999.45 999.66 999.44 999.73 999.66 1000.05 1000.71 1002.72 1003.59 1004.30 1004.54 1004.73 1005.66 1006.59 1007.18 1008.48 1009.49 1010.59 1011.16 1011.86 1012.25 1012.89 1013.77 1014.28 1014.57 1014.98 1015.05 1015.35 1015.81 1016.10 1016.24 1016.20 1015.97 1015.86 1015.76 1016.48 1015.80 1015.66 1016.48 1016.67 1015.72 1015.74 1016.86 1016.69
1001.53 1001.08 999.88 999.37 999.45 999.73 1000.25 1001.05 1000.53 999.90 1000.61 1001.32 1002.75 1003.80 1005.17 1005.15 1004.74 1004.88 1006.05 1006.82 1008.33 1009.17 1010.19 1011.01 1011.65 1012.28 1012.74 1013.34 1013.79 1014.55 1014.70 1014.91 1015.19 1015.33 1015.77 1015.96 1015.95 1015.94 1015.64 1015.97 1015.55 1015.41 1015.66 1015.66 1015.93 1016.13 1016.66 1015.89 1015.72
1000.26 999.91 999.66 999.23 999.47 1000.28 1001.66 1002.34 1003.27 1001.22 1000.95 1001.55 1003.10 1005.58 1007.36 1006.68 1005.68 1005.08 1005.75 1006.55 1007.42 1008.58 1009.34 1010.27 1010.99 1011.63 1012.30 1012.95 1013.49 1014.08 1014.13 1014.53 1014.78 1014.72 1015.20 1015.53 1015.72 1015.68 1015.56 1015.78 1015.76 1015.45 1015.72 1016.21 1016.32 1016.31 1016.97 1017.08 1015.94
999.59 999.22 999.24 999.35 1000.23 1002.01 1004.00 1005.63 1006.16 1004.80 1002.18 1001.66 1002.36 1005.07 1005.97 1006.06 1005.63 1005.06 1005.24 1005.90 1006.65 1007.76 1008.76 1009.79 1010.60 1011.39 1012.18 1012.91 1013.49 1013.89 1013.97 1014.52 1014.71 1015.03 1015.33 1015.36 1015.39 1014.99 1014.94 1015.84 1015.50 1015.42 1015.22 1015.72 1015.90 1016.32 1016.79 1016.48 1016.11
999.13 998.72 998.87 999.43 1000.04 1001.89 1003.97 1009.47 1009.23 1006.26 1002.54 1001.99 1002.39 1003.82 1004.61 1004.21 1004.90 1004.77 1004.86 1005.91 1006.09 1006.97 1008.22 1009.28 1010.17 1011.01 1012.07 1012.85 1013.34 1013.56 1013.71 1014.01 1014.20 1014.67 1014.86 1015.12 1014.73 1014.56 1014.72 1014.68 1014.88 1014.79 1015.39 1015.51 1016.35 1016.10 1016.26 1016.42 1016.19
998.54 998.31 998.61 999.13 999.98 1001.17 1005.45 1007.53 1004.97 1004.17 1001.90 1001.39 1001.60 1002.20 1003.27 1003.28 1003.82 1004.43 1006.14 1007.18 1006.30 1006.60 1007.79 1008.85 1009.92 1010.97 1011.76 1012.52 1013.09 1013.44 1013.51 1013.68 1013.86 1013.93 1014.22 1014.27 1014.29 1014.09 1014.26 1014.42 1014.67 1014.88 1014.86 1015.14 1014.86 1015.21 1015.78 1016.17 1016.14
998.62 998.61 998.63 998.81 999.28 1000.54 1001.53 1003.52 1004.66 1002.11 1001.17 1000.74 1000.73 1001.29 1002.09 1002.91 1003.15 1003.97 1005.39 1006.52 1006.26 1006.47 1007.38 1008.58 1009.77 1010.77 1011.39 1012.10 1012.69 1013.00 1013.19 1013.54 1013.74 1013.82 1013.96 1014.04 1014.11 1014.08 1013.91 1014.14 1014.46 1014.60 1014.70 1014.52 1014.31 1014.54 1015.02 1015.56 1015.35
998.41 998.38 997.97 998.37 999.16 999.68 1000.38 1001.29 1001.76 1001.09 1000.58 1000.41 1000.46 1001.25 1001.97 1002.91 1003.53 1003.75 1004.45 1005.16 1005.91 1006.95 1007.67 1008.44 1009.44 1010.40 1011.10 1011.66 1012.16 1012.54 1012.80 1013.20 1013.27 1013.33 1013.37 1013.42 1013.74 1013.95 1013.98 1014.16 1014.41 1014.62 1014.54 1014.57 1014.36 1014.36 1014.49 1014.79 1015.25
997.41 997.35 997.39 998.65 1001.85 1000.18 1000.82 1001.90 1001.44 1000.63 1000.39 1000.52 1000.62 1001.14 1001.88 1002.74 1003.39 1003.55 1004.26 1005.04 1005.91 1006.74 1007.43 1008.06 1009.05 1009.99 1010.70 1011.23 1011.71 1012.09 1012.34 1012.49 1012.59 1012.60 1013.01 1013.21 1013.10 1013.29 1013.18 1013.60 1014.07 1014.38 1014.43 1014.45 1014.55 1014.46 1014.42 1014.51 1014.69
996.64 996.72 996.68 997.18 999.63 999.78 1001.70 1003.38 1001.15 1001.06 1001.07 1001.35 1001.74 1001.92 1002.40 1002.81 1002.79 1003.11 1003.62 1004.37 1005.20 1005.97 1006.91 1007.80 1008.78 1009.54 1010.19 1010.65 1011.22 1011.72 1011.97 1011.99 1011.81 1011.90 1012.26 1012.74 1012.79 1012.97 1013.66 1013.49 1013.49 1013.76 1014.27 1014.76 1014.62 1014.62 1014.54 1014.52 1014.57
996.81 996.83 996.30 996.32 998.95 1000.57 1001.57 1002.31 1001.83 1001.39 1001.63 1001.99 1002.54 1003.03 1003.53 1003.87 1004.00 1003.96 1003.87 1003.98 1004.33 1005.02 1006.17 1007.16 1008.07 1009.00 1009.63 1009.96 1010.61 1011.15 1011.45 1011.62 1011.53 1011.65 1011.98 1012.13 1012.57 1013.17 1013.60 1013.53 1014.26 1013.67 1014.04 1014.39 1014.80 1014.66 1014.50 1014.50 1014.48
996.62 996.57 996.63 996.48 998.85 1000.04 1001.49 1000.88 1001.34 1001.54 1002.21 1002.98 1003.60 1003.98 1004.38 1004.86 1005.00 1005.03 1004.86 1004.57 1004.39 1004.29 1005.11 1006.41 1007.39 1008.27 1009.06 1009.52 1009.94 1010.40 1010.84 1011.11 1011.20 1011.22 1011.55 1011.89 1012.10 1012.51 1013.58 1013.98 1014.68 1013.38 1013.69 1014.40 1014.86 1014.72 1014.45 1014.47 1014.42
996.37 996.27 996.40 996.76 997.91 999.76 1000.37 1002.38 1001.18 1002.41 1002.84 1003.94 1004.92 1005.48 1005.69 1005.85 1005.95 1006.00 1006.14 1006.09 1005.86 1005.52 1005.53 1005.88 1006.70 1007.59 1008.21 1008.67 1009.27 1009.77 1010.22 1010.53 1010.65 1011.00 1011.15 1011.58 1011.85 1011.80 1012.41 1012.90 1013.21 1013.44 1013.59 1014.27 1014.71 1014.64 1014.34 1014.30 1014.52
Wind_Speed
10 11 9 8 2 3 8 5 12 10 5 12 1 8 19 14 7 4 14 16 26 20 18 17 16 16 17 18 17 16 16 14 13 14 12 12 12 11 10 9 9 8 8 8 8 9 9 9 8
12 15 5 6 7 6 6 11 14 14 7 9 7 14 19 18 11 17 9 20 22 21 17 16 15 15 18 18 17 16 15 15 12 13 12 11 10 9 8 6 5 4 5 5 6 7 9 9 8
14 9 5 3 7 4 6 7 12 9 4 14 1 12 12 13 10 12 20 18 20 19 19 17 16 16 18 20 18 17 15 14 14 13 12 9 8 6 4 4 4 4 3 3 4 5 7 9 8
7 5 5 4 5 14 4 3 10 14 6 11 13 11 13 9 10 21 20 18 18 19 19 16 18 17 18 17 18 20 19 18 16 15 14 5 6 5 2 2 2 3 3 3 4 5 6 8 10
10 6 1 3 9 3 11 8 6 8 0 17 11 11 9 12 18 25 19 16 18 19 17 16 18 17 17 18 18 20 19 16 16 13 11 8 3 1 1 4 2 3 4 4 4 6 8 9 12
5 4 1 2 2 5 4 2 1 7 3 5 11 8 14 13 17 23 20 16 13 18 18 16 16 19 18 19 19 19 17 17 17 14 10 5 3 2 4 5 5 2 4 4 6 7 8 11 13
13 9 14 12 13 7 3 3 3 4 2 9 4 10 3 3 13 21 19 16 18 17 18 15 13 14 17 17 17 17 15 15 15 13 8 5 1 3 6 7 6 4 3 4 6 5 6 7 10
7 5 14 15 7 3 6 4 1 6 5 2 3 8 5 11 24 17 18 16 12 15 15 14 11 11 10 10 14 13 14 11 13 10 8 6 1 5 8 8 9 6 3 5 5 6 7 7 8
15 7 9 4 8 7 13 8 3 3 9 4 5 10 17 13 16 19 14 15 14 9 14 15 13 10 9 6 9 10 12 10 10 9 6 7 4 5 8 9 5 8 7 7 8 8 8 5 9
12 6 8 8 12 6 4 4 2 7 9 3 7 21 20 22 21 19 17 13 12 11 6 10 9 11 11 8 8 8 7 5 4 4 3 2 1 2 5 10 12 11 10 10 8 9 10 10 6
5 4 6 6 6 8 9 2 4 4 6 7 6 9 11 14 15 18 15 14 16 13 10 10 11 7 11 7 6 3 5 4 3 5 3 3 1 2 4 5 7 7 10 4 2 5 6 9 8
4 5 6 5 6 5 7 5 4 1 5 14 14 12 10 18 21 19 15 14 18 19 14 12 13 9 9 5 5 6 5 5 4 3 4 3 2 5 7 7 8 8 5 6 4 7 10 13 5
6 7 7 2 4 3 4 5 4 4 3 9 18 17 22 10 17 15 14 14 12 14 13 12 12 9 6 6 5 6 5 6 7 5 6 5 4 6 5 5 7 2 8 6 4 9 11 6 4
9 7 13 1 3 7 3 10 16 5 10 8 19 12 10 11 17 15 15 13 10 13 14 7 11 10 8 6 6 7 7 7 5 5 5 7 4 6 6 6 5 3 1 7 7 4 4 4 4
10 12 16 12 1 6 6 16 9 7 4 10 10 12 5 9 24 19 15 13 15 11 11 12 6 11 11 10 8 6 7 7 5 5 6 5 6 7 7 8 1 3 3 7 9 6 8 5 6
15 6 2 20 4 4 7 19 19 8 7 11 17 14 9 10 16 17 18 18 14 11 16 13 10 11 10 6 4 4 4 3 5 5 5 8 8 8 9 5 2 4 4 3 2 6 3 4 6
2 8 16 7 5 4 5 11 7 11 10 11 19 23 14 10 20 18 18 17 17 14 10 10 9 13 12 8 5 6 6 3 6 4 5 7 7 9 6 3 2 4 4 2 5 5 7 4 2
11 15 21 4 5 7 4 4 11 9 8 9 15 13 13 15 9 21 16 17 17 13 12 11 5 7 8 5 5 4 5 5 4 5 5 5 6 9 5 3 5 8 1 2 3 3 2 5 5
19 21 9 1 2 4 15 15 10 3 3 5 15 9 3 7 13 11 17 15 20 15 16 12 8 11 7 7 7 4 7 6 5 6 6 10 7 10 7 3 4 4 2 3 4 3 5 7 4
13 10 10 4 3 6 11 10 25 14 1 5 24 26 5 20 16 11 13 15 18 17 14 12 10 9 7 5 5 5 4 6 4 5 6 6 8 8 6 4 8 5 1 7 6 3 3 2 2
14 12 7 6 7 16 14 12 29 33 7 3 10 26 22 28 17 12 16 15 14 17 14 13 10 9 7 6 5 4 4 4 5 5 4 5 9 7 5 8 6 6 3 3 4 4 6 5 4
9 11 3 7 11 5 8 4 15 34 2 2 4 22 28 17 16 16 15 13 15 14 12 10 11 10 9 7 6 7 7 7 7 7 8 9 10 9 9 7 9 7 0 6 8 5 4 3 4
10 6 8 10 12 8 12 9 14 15 11 7 7 6 21 14 16 13 14 16 11 15 12 11 11 10 8 8 8 6 5 4 6 7 7 9 9 8 12 10 7 5 4 5 1 1 2 2 1
8 12 14 14 14 4 8 12 7 6 9 10 10 9 5 11 13 11 9 21 7 9 9 11 13 10 10 10 10 8 6 7 5 5 6 6 7 6 5 7 5 5 3 4 4 2 1 1 4
10 13 8 7 5 7 9 13 9 10 12 13 11 11 11 10 5 11 7 9 8 8 7 9 13 12 11 11 11 11 8 7 8 8 9 9 8 8 9 7 5 4 4 5 5 2 2 2 2
14 17 10 7 5 8 16 9 6 13 16 15 11 13 13 15 13 11 12 9 12 11 10 9 12 12 11 11 10 8 9 7 7 10 7 5 5 6 12 10 11 7 5 6 5 4 3 4 3
15 8 15 7 20 10 8 8 11 13 13 14 13 12 13 14 2 13 14 12 13 12 10 10 13 11 12 13 10 9 8 9 9 8 7 4 2 2 13 10 9 9 8 9 6 4 3 4 2
14 12 11 5 5 8 3 5 5 13 12 12 13 12 11 10 10 11 11 3 13 14 15 12 13 12 12 11 11 10 11 11 10 7 8 7 7 9 7 6 5 7 7 5 5 6 6 5 4
10 10 11 12 13 6 7 11 14 13 13 12 13 12 12 10 10 10 10 10 6 9 11 14 12 12 11 12 11 12 11 12 12 9 9 8 5 10 13 2 11 6 5 5 6 8 2 4 4
7 13 11 6 6 7 9 10 20 12 13 14 13 11 12 12 10 11 11 12 14 13 11 12 14 13 13 11 10 12 12 12 13 12 10 9 6 3 10 13 15 12 5 7 8 7 8 7 6
Wind_Direction
251 235 231 262 321 335 199 186 112 69 102 141 263 88 104 120 124 120 232 123 119 129 132 135 131 134 136 133 134 133 129 127 128 125 122 125 123 118 117 111 114 117 112 110 109 107 105 96 103
260 253 247 271 72 8 314 54 71 101 97 98 86 62 92 84 120 125 117 131 127 129 141 135 128 133 137 139 136 133 130 128 128 121 127 128 133 132 130 133 129 129 130 127 120 123 116 114 115
257 252 242 173 140 229 285 89 91 103 148 130 274 96 59 117 114 114 129 129 130 139 128 125 131 131 134 138 136 132 129 125 116 115 109 103 115 115 143 158 162 167 166 166 152 139 134 128 130
252 220 272 258 195 187 317 105 91 63 10 41 69 45 74 88 131 116 129 126 129 124 119 133 127 126 128 132 133 125 131 125 117 113 111 131 106 113 62 25 163 214 199 181 177 140 144 138 152
235 108 187 335 57 357 184 45 81 126 148 107 99 141 114 84 100 118 123 137 132 121 126 133 125 126 121 128 129 129 130 131 126 129 134 133 157 173 329 357 329 208 197 168 187 160 152 148 147
301 289 292 13 205 124 38 95 351 69 285 68 72 59 93 111 128 128 130 131 122 129 137 128 131 125 127 122 121 124 117 124 131 124 113 104 163 252 297 298 309 248 188 177 184 175 168 165 156
243 314 336 63 36 352 124 264 350 229 132 358 19 96 308 124 124 134 143 143 141 141 127 140 145 135 132 123 123 123 127 117 122 123 137 162 72 342 303 289 288 244 201 194 202 167 173 169 186
57 39 354 316 90 325 8 293 61 315 78 53 254 119 99 265 115 136 129 126 123 136 140 140 152 147 138 134 135 137 130 128 141 111 109 121 192 263 278 272 259 232 222 218 218 194 200 196 213
78 360 255 341 60 9 348 330 216 242 143 141 165 145 165 207 135 129 130 129 133 159 137 154 159 165 140 131 144 128 145 132 143 149 166 181 192 231 250 250 241 219 217 220 228 224 223 225 237
120 189 13 3 4 334 174 342 202 241 56 92 348 124 172 188 138 138 143 146 156 145 165 143 165 176 150 186 149 145 149 95 107 78 148 164 278 285 287 253 239 221 208 222 237 245 243 234 188
340 42 357 359 23 316 345 352 349 45 112 170 90 306 173 147 135 147 158 163 165 161 171 160 169 184 158 195 172 149 128 117 123 154 189 187 224 301 286 273 223 218 213 212 88 311 292 257 216
310 35 342 358 7 321 298 355 312 53 97 152 130 171 150 230 153 158 164 183 158 169 162 168 155 179 183 172 144 151 140 155 159 171 248 170 213 224 241 227 237 215 163 113 73 274 268 244 196
276 351 309 10 324 273 302 285 261 259 103 117 155 181 180 174 158 164 151 150 156 140 153 188 151 171 182 144 152 151 172 165 165 177 203 219 208 247 261 275 266 134 141 109 251 221 247 237 223
270 297 276 181 285 294 295 354 334 230 147 162 163 161 140 152 152 141 155 145 159 169 146 134 158 154 167 165 173 175 175 168 165 172 186 220 228 263 275 270 240 156 121 93 251 255 259 251 259
276 274 16 289 307 274 356 6 267 245 219 169 164 152 157 152 144 146 148 147 148 138 150 159 166 160 173 183 176 174 156 163 162 171 178 204 236 253 264 268 302 317 107 180 216 19 322 312 333
244 31 205 271 237 150 274 192 215 153 206 188 110 46 231 149 151 145 150 151 151 164 157 164 179 175 164 178 154 179 199 178 156 173 178 203 223 234 262 280 148 252 95 14 332 172 251 30 13
48 314 279 232 183 314 230 309 256 170 202 187 145 185 156 145 155 147 156 152 162 159 154 169 186 174 166 171 153 186 164 144 164 171 179 205 218 240 252 275 9 297 122 95 264 281 141 76 81
259 189 250 307 50 314 216 39 16 164 212 185 160 157 145 159 149 146 160 161 149 150 162 172 179 151 147 158 170 171 157 183 144 162 184 201 224 245 249 257 182 258 165 47 293 38 333 135 223
233 254 281 87 230 261 48 2 14 253 174 222 178 122 42 110 150 156 145 151 151 156 169 175 171 164 163 163 172 164 195 162 189 170 186 186 210 236 234 289 257 204 269 82 313 316 71 317 208
241 253 288 206 311 44 50 16 344 348 71 218 127 133 192 262 166 157 156 158 159 167 168 159 167 167 174 178 178 186 191 154 171 162 173 197 229 245 219 90 304 238 58 164 208 343 52 289 26
235 242 257 308 101 66 10 19 335 317 307 195 152 151 173 211 170 168 166 173 170 162 165 153 152 174 168 190 169 197 157 150 166 155 175 227 232 214 211 137 249 267 255 278 159 123 84 302 306
241 291 307 272 272 157 159 80 313 293 185 189 128 134 175 196 169 176 171 187 192 158 151 151 156 169 170 174 178 189 179 177 177 179 190 208 232 203 179 201 207 227 22 96 250 163 193 225 276
253 323 292 272 291 87 116 102 266 233 139 140 133 137 178 157 168 182 89 310 199 141 151 154 155 162 160 171 182 206 187 187 193 193 176 203 204 211 191 190 197 221 244 260 204 151 152 201 103
299 289 278 255 249 293 298 137 299 81 89 105 116 119 145 124 143 164 164 192 138 128 153 153 149 164 169 179 186 207 190 185 197 202 203 190 204 216 226 180 188 212 247 299 305 291 277 43 334
229 250 263 282 296 282 163 99 115 118 85 83 104 110 122 123 206 157 182 131 125 150 186 150 154 167 181 190 188 188 214 198 218 199 202 185 188 195 208 193 175 211 227 272 281 285 324 322 276
238 245 254 178 353 254 27 88 104 87 98 88 91 124 139 157 178 206 164 184 163 186 185 172 161 168 180 184 193 193 209 195 215 206 198 227 211 203 183 185 180 207 199 237 244 238 218 241 234
244 236 265 269 189 202 110 184 125 111 99 98 82 61 40 34 114 184 179 182 178 172 170 182 166 178 184 192 189 192 201 223 220 203 204 205 207 308 213 174 180 183 196 222 222 245 238 273 227
283 323 293 294 9 72 125 66 358 114 110 102 100 90 72 49 28 10 355 266 174 180 175 183 170 182 197 200 185 192 199 218 241 203 211 211 180 205 72 351 222 176 199 206 211 231 230 198 209
202 234 243 280 166 170 189 160 177 129 121 110 97 89 83 66 48 31 5 349 334 188 178 172 178 179 200 201 190 196 196 211 230 232 196 216 196 116 133 74 312 244 190 216 216 253 260 231 250
237 300 317 354 330 24 317 29 102 89 101 97 90 79 74 68 48 50 31 12 6 10 3 171 176 183 193 201 197 200 194 208 216 235 213 202 184 192 148 152 217 235 203 201 228 230 250 189 226